Location: Unspecified
(0.0000°N, 0.0000°E)
Time: 08:10:25
(UTC+00:00)

Tiros 1 despin weight - Pass Details

Date: 12 October 2023
Orbit: 583 x 627 km, 48.2° (Epoch: 05 December)

Event Time Altitude Azimuth Distance (km) Brightness Sun altitude
Rises 00:00:15 0° 317° (NW) 2,797 - -82.0°
Reaches altitude 10° 00:02:32 10° 315° (NW) 1,894 - -81.8°
Maximum altitude 00:06:51 72° 231° (SW) 613 - -81.2°
Drops below altitude 10° 00:11:10 10° 147° (SSE) 1,893 - -80.5°
Sets 00:13:27 0° 145° (SE) 2,795 - -80.2°
